Content
SEND FEEDBACK

Daily
Averages
Monthly
Summary
Thailand

PHUKET, THAILAND


Home > Asia > Thailand
Elevation: 33 feet     Latitude: 08 07N     Longitude: 098 19E

WEATHER
 
SELECT A DAY
Number of Records: 227,625;   Date Range: 7/1/96 - 7/29/14
 
SHARE

PRINT THIS DATA

[ ← Previous Day ]
WEATHER ALMANAC - JUNE 28, 2013
[ Next Day → ]
[ °C ]   °F
We're sorry. There is no daily almanac available for Phuket, Thailand on June 28, 2013.
WEATHER BY HOUR - JUNE 28, 2013
[ °C ]   °F
Local TimeTemperatureDewpointHumidityBarometerVisibilityWind DirectionWind SpeedGust SpeedPrecipitationEventsConditions
12:30 AM82.4 °F75.2 °F79 %29.86 in5.0 miVariable5.8 mphMostly Cloudy
1:00 AM83.0 °F78.0 °F81 %29.82 in6.0 miCalmScattered Clouds
1:00 AM82.4 °F75.2 °F79 %29.86 in5.0 miVariable2.3 mphMostly Cloudy
1:30 AM82.4 °F75.2 °F79 %29.86 in5.0 miWSW (250°)5.8 mphMostly Cloudy
2:00 AM82.4 °F75.2 °F79 %29.83 in5.0 miVariable5.8 mphMostly Cloudy
2:30 AM82.4 °F75.2 °F79 %29.83 in5.0 miWest (260°)9.2 mphMostly Cloudy
3:00 AM82.4 °F75.2 °F79 %29.83 in5.0 miWest (260°)8.1 mphMostly Cloudy
3:30 AM82.4 °F75.2 °F79 %29.83 in5.0 miWest (260°)8.1 mphMostly Cloudy
4:00 AM80.6 °F75.2 °F84 %29.83 in5.0 miVariable3.5 mphMostly Cloudy
4:30 AM80.6 °F75.2 °F84 %29.83 in5.0 miCalmMostly Cloudy
5:00 AM80.6 °F75.2 °F84 %29.83 in5.0 miWest (280°)3.5 mphMostly Cloudy
5:30 AM80.6 °F75.2 °F84 %29.83 in5.0 miWest (260°)5.8 mphMostly Cloudy
6:00 AM80.6 °F75.2 °F84 %29.83 in5.0 miWest (260°)3.5 mphMostly Cloudy
6:30 AM80.6 °F75.2 °F84 %29.83 in5.0 miWSW (240°)4.6 mphMostly Cloudy
7:00 AM82.0 °F77.0 °F81 %29.81 in6.0 miWest (260°)3.5 mphScattered Clouds
7:00 AM82.4 °F75.2 °F79 %29.86 in5.0 miVariable3.5 mphMostly Cloudy
7:30 AM84.2 °F75.2 °F74 %29.86 in5.0 miWest (280°)10.4 mphScattered Clouds
8:00 AM84.2 °F75.2 °F74 %29.86 in5.6 miWSW (250°)9.2 mphScattered Clouds
8:30 AM86.0 °F75.2 °F70 %29.86 in5.6 miWest (270°)13.8 mphMostly Cloudy
9:00 AM86.0 °F75.2 °F70 %29.86 in5.6 miWest (260°)12.7 mphMostly Cloudy
9:30 AM86.0 °F75.2 °F70 %29.89 in5.6 miWest (260°)13.8 mphMostly Cloudy
10:00 AM86.0 °F75.2 °F70 %29.86 in5.6 miWest (280°)12.7 mphMostly Cloudy
10:30 AM86.0 °F75.2 °F70 %29.86 in5.6 miWest (270°)13.8 mphMostly Cloudy
11:00 AM86.0 °F75.2 °F70 %29.89 in5.6 miWest (260°)12.7 mphMostly Cloudy
11:30 AM86.0 °F75.2 °F70 %29.86 in5.6 miWSW (250°)12.7 mphMostly Cloudy
12:00 PM86.0 °F75.2 °F70 %29.86 in5.6 miWest (260°)13.8 mphMostly Cloudy
12:30 PM86.0 °F75.2 °F70 %29.86 in5.6 miWest (270°)13.8 mphMostly Cloudy
1:00 PM88.0 °F78.0 °F64 %29.82 in6.0 miWest (270°)3.5 mphScattered Clouds
1:00 PM87.8 °F75.2 °F66 %29.86 in5.6 miWest (260°)12.7 mphMostly Cloudy
1:30 PM87.8 °F75.2 °F66 %29.83 in5.6 miWest (260°)13.8 mphMostly Cloudy
2:00 PM87.8 °F75.2 °F66 %29.83 in5.6 miWest (260°)15.0 mphMostly Cloudy
2:30 PM87.8 °F75.2 °F66 %29.83 in5.6 miWest (280°)13.8 mphMostly Cloudy
3:00 PM87.8 °F75.2 °F66 %29.83 in5.6 miWest (280°)13.8 mphMostly Cloudy
3:30 PM87.8 °F75.2 °F66 %29.80 in5.6 miWest (280°)12.7 mphMostly Cloudy
4:00 PM86.0 °F73.4 °F66 %29.80 in5.6 miWest (280°)12.7 mphMostly Cloudy
4:30 PM86.0 °F75.2 °F70 %29.80 in5.6 miWest (270°)12.7 mphMostly Cloudy
5:00 PM86.0 °F73.4 °F66 %29.80 in5.6 miWest (260°)15.0 mphMostly Cloudy
5:30 PM86.0 °F73.4 °F66 %29.80 in5.6 miWest (270°)12.7 mphMostly Cloudy
6:00 PM84.2 °F73.4 °F70 %29.80 in5.6 miWest (280°)11.5 mphMostly Cloudy
6:30 PM84.2 °F75.2 °F74 %29.80 in5.6 miWNW (300°)10.4 mphMostly Cloudy
7:00 PM85.0 °F76.0 °F68 %29.76 in6.0 miWest (270°)3.5 mphScattered Clouds
7:00 PM84.2 °F75.2 °F74 %29.80 in5.6 miWest (280°)9.2 mphMostly Cloudy
7:30 PM82.4 °F75.2 °F79 %29.80 in5.6 miWNW (290°)6.9 mphMostly Cloudy
8:00 PM82.4 °F75.2 °F79 %29.83 in5.6 miWest (280°)6.9 mphMostly Cloudy
8:30 PM82.4 °F73.4 °F74 %29.83 in5.6 miWest (260°)6.9 mphMostly Cloudy
9:00 PM82.4 °F73.4 °F74 %29.86 in5.6 miWSW (240°)5.8 mphMostly Cloudy
9:30 PM82.4 °F75.2 °F79 %29.86 in5.6 miWest (270°)8.1 mphMostly Cloudy
10:00 PM82.4 °F75.2 °F79 %29.86 in5.6 miVariable2.3 mphMostly Cloudy
10:30 PM82.4 °F73.4 °F74 %29.86 in5.6 miVariable5.8 mphMostly Cloudy
11:00 PM82.4 °F73.4 °F74 %29.86 in5.6 miVariable3.5 mphMostly Cloudy
11:30 PM80.6 °F75.2 °F84 %29.86 in5.6 miVariable2.3 mphMostly Cloudy
Hourly data recorded from VTSP, located miles away from Phuket, Thailand







STORIES FROM OUR PARTNERS